Stündliche Wetter Çay

Heute, 26 Oktober, Montag

Zeit Temperatur Niederschläge Wind Luftdruck Luftfeuchtigkeit
00:00 +18°C° 0 mm 1 m/S 671 mmHg 36%
01:00 +18°C° 0 mm 1 m/S 671 mmHg 36%
02:00 +18°C° 0 mm 1 m/S 671 mmHg 36%
03:00 +18°C° 0 mm 1 m/S 671 mmHg 37%
04:00 +16°C° 0 mm 1 m/S 671 mmHg 37%
05:00 +16°C° 0 mm 1 m/S 671 mmHg 38%
06:00 +18°C° 0 mm 1 m/S 671 mmHg 37%
07:00 +19°C° 0 mm 1 m/S 672 mmHg 36%
08:00 +19°C° 0 mm 2 m/S 672 mmHg 36%
09:00 +21°C° 0 mm 2 m/S 672 mmHg 31%
10:00 +22°C° 0 mm 3 m/S 673 mmHg 27%
11:00 +25°C° 0 mm 4 m/S 673 mmHg 23%
12:00 +25°C° 0 mm 5 m/S 673 mmHg 22%
13:00 +25°C° 0 mm 5 m/S 672 mmHg 22%
14:00 +26°C° 0 mm 6 m/S 672 mmHg 22%
15:00 +23°C° 0 mm 5 m/S 672 mmHg 26%
16:00 +22°C° 0 mm 4 m/S 671 mmHg 29%
17:00 +21°C° 0 mm 3 m/S 671 mmHg 33%
18:00 +20°C° 0 mm 3 m/S 671 mmHg 36%
19:00 +19°C° 0 mm 2 m/S 671 mmHg 39%
20:00 +19°C° 0 mm 1 m/S 672 mmHg 42%
21:00 +18°C° 0 mm 1 m/S 672 mmHg 44%
22:00 +16°C° 0 mm 1 m/S 672 mmHg 45%
23:00 +16°C° 0 mm 1 m/S 672 mmHg 47%

Morgen, 27 Oktober, Dienstag

Zeit Temperatur Niederschläge Wind Luftdruck Luftfeuchtigkeit
00:00 +15°C° 0 mm 1 m/S 671 mmHg 48%
01:00 +15°C° 0 mm 1 m/S 671 mmHg 50%
02:00 +14°C° 0 mm 1 m/S 671 mmHg 52%
03:00 +14°C° 0 mm 1 m/S 671 mmHg 53%
04:00 +13°C° 0 mm 0 m/S 671 mmHg 54%
05:00 +12°C° 0 mm 0 m/S 671 mmHg 55%
06:00 +15°C° 0 mm 1 m/S 671 mmHg 52%
07:00 +16°C° 0 mm 1 m/S 671 mmHg 49%
08:00 +18°C° 0 mm 1 m/S 672 mmHg 46%
09:00 +19°C° 0 mm 1 m/S 672 mmHg 42%
10:00 +20°C° 0 mm 2 m/S 672 mmHg 38%
11:00 +21°C° 0 mm 2 m/S 673 mmHg 34%
12:00 +23°C° 0 mm 2 m/S 672 mmHg 31%
13:00 +23°C° 0 mm 2 m/S 672 mmHg 29%
14:00 +24°C° 0 mm 3 m/S 671 mmHg 27%
15:00 +22°C° 0 mm 3 m/S 671 mmHg 29%
16:00 +21°C° 0 mm 2 m/S 671 mmHg 32%
17:00 +20°C° 0 mm 2 m/S 670 mmHg 35%
18:00 +19°C° 0 mm 2 m/S 670 mmHg 36%
19:00 +18°C° 0 mm 2 m/S 670 mmHg 38%
20:00 +17°C° 0 mm 2 m/S 670 mmHg 40%
21:00 +17°C° 0 mm 2 m/S 670 mmHg 41%
22:00 +16°C° 0 mm 2 m/S 670 mmHg 43%
23:00 +16°C° 0 mm 1 m/S 670 mmHg 44%

übermorgen, 28 Oktober, Mittwoch

Zeit Temperatur Niederschläge Wind Luftdruck Luftfeuchtigkeit
00:00 +15°C° 0 mm 1 m/S 670 mmHg 45%
01:00 +15°C° 0 mm 1 m/S 670 mmHg 47%
02:00 +14°C° 0 mm 1 m/S 669 mmHg 49%
03:00 +14°C° 0 mm 1 m/S 669 mmHg 50%
04:00 +13°C° 0 mm 1 m/S 669 mmHg 51%
05:00 +12°C° 0 mm 0 m/S 669 mmHg 53%
06:00 +13°C° 0 mm 0 m/S 670 mmHg 50%
07:00 +15°C° 0 mm 0 m/S 670 mmHg 47%
08:00 +16°C° 0 mm 0 m/S 671 mmHg 44%
09:00 +19°C° 0 mm 1 m/S 671 mmHg 40%
10:00 +20°C° 0 mm 1 m/S 671 mmHg 36%
11:00 +21°C° 0 mm 1 m/S 671 mmHg 32%
12:00 +21°C° 0 mm 2 m/S 671 mmHg 30%
13:00 +21°C° 0 mm 2 m/S 671 mmHg 28%
14:00 +23°C° 0 mm 2 m/S 671 mmHg 26%
15:00 +21°C° 0 mm 2 m/S 671 mmHg 29%
16:00 +20°C° 0 mm 2 m/S 671 mmHg 31%
17:00 +19°C° 0 mm 2 m/S 670 mmHg 34%
18:00 +18°C° 0 mm 2 m/S 670 mmHg 37%
19:00 +17°C° 0 mm 2 m/S 671 mmHg 40%
20:00 +16°C° 0 mm 2 m/S 671 mmHg 42%
21:00 +16°C° 0 mm 2 m/S 671 mmHg 47%
22:00 +15°C° 0 mm 1 m/S 671 mmHg 51%
23:00 +14°C° 0 mm 1 m/S 671 mmHg 55%

29 Oktober, Donnerstag

Zeit Temperatur Niederschläge Wind Luftdruck Luftfeuchtigkeit
00:00 +14°C° 0 mm 1 m/S 671 mmHg 57%
01:00 +14°C° 0 mm 1 m/S 670 mmHg 59%
02:00 +13°C° 0 mm 1 m/S 670 mmHg 61%
03:00 +13°C° 0 mm 1 m/S 670 mmHg 61%
04:00 +13°C° 0 mm 1 m/S 671 mmHg 61%
05:00 +13°C° 0 mm 1 m/S 671 mmHg 61%
06:00 +14°C° 0 mm 1 m/S 671 mmHg 59%
07:00 +14°C° 0 mm 1 m/S 671 mmHg 57%
08:00 +15°C° 0 mm 2 m/S 672 mmHg 54%
09:00 +15°C° 0 mm 2 m/S 672 mmHg 53%
10:00 +16°C° 0 mm 2 m/S 672 mmHg 52%
11:00 +16°C° 0 mm 1 m/S 672 mmHg 51%
12:00 +17°C° 0 mm 2 m/S 672 mmHg 50%
13:00 +18°C° 0 mm 3 m/S 672 mmHg 50%
14:00 +18°C° 0 mm 3 m/S 672 mmHg 49%
15:00 +17°C° 0.2 mm 3 m/S 672 mmHg 54%
16:00 +17°C° 0.2 mm 2 m/S 672 mmHg 59%
17:00 +16°C° 0.2 mm 2 m/S 672 mmHg 65%
18:00 +15°C° 0.1 mm 1 m/S 672 mmHg 67%
19:00 +15°C° 0.1 mm 1 m/S 672 mmHg 69%
20:00 +14°C° 0.1 mm 1 m/S 672 mmHg 71%
21:00 +14°C° 0 mm 1 m/S 672 mmHg 71%
22:00 +13°C° 0 mm 1 m/S 672 mmHg 71%
23:00 +13°C° 0 mm 1 m/S 673 mmHg 72%

30 Oktober, Freitag

Zeit Temperatur Niederschläge Wind Luftdruck Luftfeuchtigkeit
00:00 +12°C° 0 mm 1 m/S 673 mmHg 72%
01:00 +12°C° 0 mm 1 m/S 673 mmHg 73%
02:00 +12°C° 0 mm 1 m/S 673 mmHg 74%
03:00 +11°C° 0 mm 1 m/S 673 mmHg 75%
04:00 +11°C° 0 mm 1 m/S 673 mmHg 76%
05:00 +11°C° 0 mm 1 m/S 673 mmHg 77%
06:00 +11°C° 0 mm 1 m/S 673 mmHg 74%
07:00 +12°C° 0 mm 1 m/S 674 mmHg 71%
08:00 +13°C° 0 mm 1 m/S 674 mmHg 67%
09:00 +14°C° 0 mm 1 m/S 674 mmHg 63%
10:00 +15°C° 0 mm 2 m/S 674 mmHg 59%
11:00 +16°C° 0 mm 2 m/S 675 mmHg 55%
12:00 +16°C° 0 mm 2 m/S 674 mmHg 53%
13:00 +16°C° 0 mm 2 m/S 674 mmHg 51%
14:00 +17°C° 0 mm 2 m/S 674 mmHg 49%
15:00 +16°C° 0 mm 3 m/S 674 mmHg 54%
16:00 +14°C° 0 mm 3 m/S 674 mmHg 59%
17:00 +14°C° 0 mm 3 m/S 674 mmHg 64%
18:00 +13°C° 0 mm 3 m/S 674 mmHg 69%
19:00 +13°C° 0 mm 2 m/S 674 mmHg 74%
20:00 +12°C° 0 mm 2 m/S 674 mmHg 79%
21:00 +12°C° 0 mm 2 m/S 674 mmHg 81%
22:00 +12°C° 0 mm 2 m/S 674 mmHg 83%
23:00 +11°C° 0 mm 1 m/S 674 mmHg 85%

31 Oktober, Samstag

Zeit Temperatur Niederschläge Wind Luftdruck Luftfeuchtigkeit
00:00 +11°C° 0 mm 1 m/S 674 mmHg 86%
01:00 +10°C° 0 mm 1 m/S 673 mmHg 88%
02:00 +10°C° 0 mm 1 m/S 673 mmHg 89%
03:00 +10°C° 0 mm 1 m/S 673 mmHg 90%
04:00 +9°C° 0 mm 2 m/S 673 mmHg 90%
05:00 +8°C° 0 mm 2 m/S 673 mmHg 91%
06:00 +9°C° 0 mm 2 m/S 673 mmHg 88%
07:00 +9°C° 0 mm 2 m/S 673 mmHg 86%
08:00 +10°C° 0 mm 2 m/S 673 mmHg 83%
Mehr zeigen